Regional Weather Roundup
Issued by NWS Burlington, VT

Current Version | Previous Version | Text Only | Print | Product List | Glossary On
Versions: 1 2 3 4 5 6 7 8 9 10 11 12 13 14 15 16 17 18 19 20 21 22 23 24 25 26 27 28 29 30 31 32 33 34 35 36 37 38 39 40 41 42 43 44 45 46 47 48 49 50
000
ASUS41 KBTV 041230
RWRBTV
VERMONT REGIONAL WEATHER ROUNDUP
NATIONAL WEATHER SERVICE BURLINGTON VT
700 AM EST WED MAR 04 2015

NOTE: "FAIR" INDICATES FEW OR NO CLOUDS BELOW 12,000 FEET WITH NO
SIGNIFICANT WEATHER AND/OR OBSTRUCTIONS TO VISIBILITY.

* THESE REPORTS ARE NOT UNDER NWS QUALITY CONTROL AND/OR DO NOT
  REPORT WEATHER SUCH AS PRECIPITATION AND FOG.

VTZ001>019-041300-
_____VERMONT_____


CITY           SKY/WX    TMP DP  RH WIND       PRES   REMARKS
BURLINGTON     CLOUDY    33  26  75 S7        29.68R
6HR MIN TEMP:  29; 6HR MAX TEMP:  33;

MONTPELIER     CLOUDY    32  25  75 W6        29.66R
6HR MIN TEMP:  22; 6HR MAX TEMP:  32;

MORRISVILLE    CLOUDY    34  24  67 S6        29.67R
6HR MIN TEMP:  25; 6HR MAX TEMP:  34;

ST. JOHNSBURY*   N/A     28  24  85 MISG      29.62R
6HR MIN TEMP:  25; 6HR MAX TEMP:  29;

LYNDONVILLE*   MIX PCPN  28  24  86 S5        29.64R
6HR MIN TEMP:  23; 6HR MAX TEMP:  26;

MIDDLEBURY*    CLOUDY    34  28  79 S7        29.67S
6HR MIN TEMP:  29; 6HR MAX TEMP:  34;

RUTLAND*       CLOUDY    36  27  69 NW8       29.69S
6HR MIN TEMP:  28; 6HR MAX TEMP:  36;

SPRINGFIELD    CLOUDY    36  28  73 W9G21     29.67R
6HR MIN TEMP:  23; 6HR MAX TEMP:  36;

HIGHGATE*      CLOUDY    30  24  78 NW5       29.68R
6HR MIN TEMP:  28; 6HR MAX TEMP:  32;

NEWPORT*       LGT SNOW  28  24  84 W10G16    29.63R WCI  19
6HR MIN TEMP:  23; 6HR MAX TEMP:  30;

BENNINGTON     CLOUDY    35  29  78 W5        29.73R
6HR MIN TEMP:  35; 6HR MAX TEMP:  37;

SUTTON*          N/A     28 N/A N/A MISG        N/A
MT. MANSFIELD*   N/A     19 N/A N/A CALM        N/A

_____LAKE CHAMPLAIN_____


CITY           SKY/WX    TMP DP  RH WIND       PRES   REMARKS
BURTON ISLAND*   N/A     32  30  93 NE1         N/A
COLCHESTER RF*   N/A     36  27  69 W21         N/A
DIAMOND ISL*     N/A     32  30  93 W5          N/A

$$

NYZ007-026>031-035-052-083-041300-
_____NORTHERN NEW YORK_____


CITY           SKY/WX    TMP DP  RH WIND       PRES   REMARKS
PLATTSBURGH    CLOUDY    35  24  64 VRB3      29.67R
6HR MIN TEMP:  27; 6HR MAX TEMP:  35; 6HR PCP: TRACE;

SARANAC LAKE   CLOUDY    26  23  88 W12G20    29.65R WCI  16
6HR MIN TEMP:  26; 6HR MAX TEMP:  29;

MASSENA        CLOUDY    31  25  78 SW15G22   29.71R
6HR MIN TEMP:  31; 6HR MAX TEMP:  33; 6HR PCP: TRACE;

OGDENSBURG*    CLOUDY    30  25  80 W6        29.73R
POTSDAM*       CLOUDY    30  27  86 W10G17    29.72R
WATERTOWN      CLOUDY    33  25  72 SW8       29.75R
6HR MIN TEMP:  32; 6HR MAX TEMP:  35;

FT DRUM        CLOUDY    29  25  84 W5        29.72R
6HR MIN TEMP:  29; 6HR MAX TEMP:  32; 6HR PCP: TRACE;

ALBANY         CLOUDY    34  28  79 VRB3      29.77R
6HR MIN TEMP:  31; 6HR MAX TEMP:  36;

GLENS FALLS    CLOUDY    32  28  85 S10       29.73R
6HR MIN TEMP:  27; 6HR MAX TEMP:  32; 6HR PCP: TRACE;


$$
NHZ002-005-011-041300-
_____NEW HAMPSHIRE_____


CITY           SKY/WX    TMP DP  RH WIND       PRES   REMARKS
LEBANON        FLURRIES  35  27  72 W8        29.65R
6HR MIN TEMP:  27; 6HR MAX TEMP:  35; 6HR PCP: TRACE;

KEENE          CLOUDY    36  30  80 SW6       29.69R
6HR MIN TEMP:  28; 6HR MAX TEMP:  36; 6HR PCP:  0.01;

MT WASHINGTON  BLWGSNOW  10  10 100 NW69G86     N/A  VSB 0   WCI -19
6HR MIN TEMP:  11; 6HR MAX TEMP:  16;

PLYMOUTH       CLOUDY    30  30 100 CALM      29.62S
6HR MIN TEMP:  23; 6HR MAX TEMP:  26;

WHITEFIELD     CLOUDY    32  25  75 SW6       29.61R
6HR MIN TEMP:  26; 6HR MAX TEMP:  32;


$$

_____REGIONAL QUEBEC LOCATIONS_____


CITY           SKY/WX    TMP DP  RH WIND       PRES   REMARKS
MONTREAL       PTSUNNY   27  19  74 W12       29.65R WCI  16
QUEBEC CITY    FLURRIES  21  18  86 SW17      29.57R WCI   7
SHERBROOKE     FLURRIES  27  25  93 W16       29.61R WCI  14

_____REGIONAL ONTARIO LOCATIONS_____


CITY           SKY/WX    TMP DP  RH WIND       PRES   REMARKS
OTTAWA         PTSUNNY   27  21  80 SW10      29.67R WCI  17

______KEY______
VSB  - VISIBILITY IN MILES
WCI  - WIND CHILL INDEX
HX   - HEAT INDEX
$$
NNNN



USA.gov is the U.S. government's official web portal to all federal, state and local government web resources and services.